Temperature
21 20 20 20 20 19 19 19 19 19 19 19 19 19 19 19 19 19 18 18 18 18 18 18 18 18 18 18 18 18 18 18 18 18 18 18 18 18 18 18 17 17 17
21 20 20 20 20 20 19 19 19 19 19 19 19 19 19 19 19 19 18 18 18 18 18 18 18 18 18 18 18 18 18 18 18 18 18 18 18 17 17 17 17 17 17
21 20 20 20 20 20 19 19 19 19 19 19 19 19 19 19 19 18 18 18 18 18 18 18 18 18 18 18 18 18 18 18 18 18 17 17 17 17 17 17 17 17 17
20 20 19 20 19 19 19 19 19 19 19 19 19 19 19 19 18 18 18 18 18 18 18 18 18 18 18 18 18 18 18 18 18 18 17 17 17 17 17 17 17 17 17
20 20 20 20 20 19 19 19 19 19 19 19 19 18 18 18 18 18 18 18 18 18 18 18 18 18 18 18 18 18 18 18 18 17 17 17 17 17 17 17 17 17 17
20 20 20 20 20 19 19 19 19 19 19 18 18 18 18 18 18 18 18 18 18 18 18 18 18 18 18 18 18 18 18 18 17 17 17 17 17 17 17 17 17 17 17
20 20 19 20 20 19 19 19 19 19 19 18 18 18 18 18 18 18 18 18 18 18 18 18 18 18 18 18 18 18 18 17 17 17 17 17 17 17 17 17 17 17 17
20 20 20 20 19 19 19 19 19 19 19 18 18 18 18 18 18 18 18 18 18 18 18 18 18 18 18 18 18 18 18 17 17 17 17 17 17 17 17 17 17 17 17
20 20 19 19 19 19 19 19 19 19 18 18 18 18 18 18 18 18 18 18 18 18 18 18 18 18 18 18 18 18 18 17 17 17 17 17 17 17 17 17 17 17 17
20 19 19 19 19 19 19 19 19 19 19 18 18 18 18 18 18 18 18 18 18 18 18 18 18 18 17 18 18 18 17 17 17 17 17 17 17 17 17 17 17 17 17
20 19 19 19 19 19 18 18 18 18 18 18 18 18 18 17 17 17 17 18 18 18 18 18 17 17 17 17 18 18 17 17 17 17 17 17 17 17 17 17 16 16 16
20 19 19 19 19 19 18 18 18 18 18 18 18 17 17 17 17 17 17 18 18 17 17 17 17 17 17 17 17 17 17 17 17 17 17 17 17 17 17 17 16 16 16
20 19 19 19 19 19 19 18 18 18 18 18 17 17 17 17 17 17 17 17 17 17 17 17 17 17 17 17 17 17 17 17 17 17 17 17 17 17 17 17 16 16 16
20 19 19 19 19 19 18 18 18 18 18 18 17 17 17 17 17 17 17 17 17 17 17 17 17 17 17 17 17 17 17 17 17 17 17 17 17 17 17 16 16 16 16
20 19 19 19 19 19 18 18 18 18 18 18 17 17 17 17 17 17 17 17 17 17 17 17 17 17 17 17 17 17 17 17 17 17 16 17 17 17 16 16 16 16 16
20 19 19 19 19 19 18 18 18 18 18 18 17 17 17 17 17 17 17 17 17 17 17 17 17 17 17 17 17 17 17 17 16 16 16 16 16 17 16 16 16 16 16
19 19 19 19 18 18 18 18 18 18 18 17 17 17 17 17 17 17 17 17 17 17 17 17 17 17 17 17 16 16 16 16 16 16 16 16 16 16 16 16 16 16 16
20 19 19 19 18 18 18 18 18 18 17 17 17 17 17 17 17 17 17 17 17 17 17 17 17 17 17 17 16 16 16 16 16 16 16 16 16 16 16 16 16 16 16
20 19 19 19 19 18 18 18 18 18 17 17 17 17 17 17 17 17 17 17 17 17 17 17 17 17 16 16 16 16 16 16 16 16 16 16 16 16 16 16 16 16 16
20 19 19 19 18 18 18 18 17 17 17 17 17 17 17 17 17 17 16 16 16 16 16 16 16 16 16 16 17 16 16 16 16 16 16 16 16 16 16 15 15 16 16
19 19 19 18 18 18 18 18 17 17 17 17 17 17 17 17 16 16 16 16 16 16 16 16 16 16 16 16 16 16 16 16 16 16 16 16 16 16 15 15 15 15 15
19 19 19 19 18 18 18 18 17 17 17 17 17 17 17 17 16 16 16 16 16 16 16 16 16 16 16 16 16 17 17 17 16 16 16 15 15 15 15 15 15 15 15
19 19 19 19 19 18 18 17 17 17 17 17 17 17 17 17 16 16 16 16 16 16 16 16 16 15 16 16 16 16 17 18 17 16 16 16 15 15 15 15 15 15 15
19 19 19 19 18 18 18 17 17 17 17 17 17 17 16 16 16 16 16 16 16 15 15 15 15 15 15 15 15 16 16 16 16 17 16 16 15 15 15 15 15 15 15
19 18 18 18 18 18 18 17 17 17 17 17 16 16 16 16 16 16 16 16 16 15 15 15 15 15 15 15 15 15 15 15 16 16 16 16 16 15 15 15 15 15 15
18 18 18 18 18 18 18 17 17 17 17 17 16 16 16 16 16 16 15 15 15 15 15 15 15 15 15 15 15 15 15 15 16 16 16 16 16 15 15 15 15 15 14
Wind_Speed
7 11 14 10 9 8 8 9 10 11 11 10 10 10 11 10 10 10 10 10 11 11 11 11 12 12 10 10 11 11 12 12 13 13 13 12 13 12 12 10 9 9 11
10 12 14 11 9 9 9 9 10 11 11 10 10 10 10 10 10 10 10 10 10 11 11 11 11 11 11 11 11 11 11 11 12 12 12 12 12 11 10 9 6 10 11
11 12 13 11 9 9 9 10 10 11 11 11 10 10 10 10 10 10 10 10 10 10 10 11 11 11 11 11 11 11 10 10 11 11 10 10 11 10 10 9 9 10 10
11 12 11 11 9 9 10 9 11 11 11 10 10 10 9 9 9 9 10 9 9 9 10 10 10 10 10 10 10 10 9 9 9 8 7 8 9 10 9 9 8 9 9
11 11 13 11 10 9 9 10 10 10 10 10 10 9 9 8 8 9 9 9 9 9 9 9 9 9 10 10 9 9 8 7 6 6 6 7 8 10 9 8 8 8 8
11 11 14 11 10 9 9 9 10 10 10 9 9 9 8 8 8 8 8 8 8 8 8 8 8 7 8 8 8 8 7 6 6 6 6 6 8 10 8 7 7 7 7
10 10 13 11 10 9 9 9 9 10 9 9 9 8 8 8 8 7 7 7 7 7 7 7 7 7 6 7 7 6 5 4 3 5 6 6 8 9 7 6 6 7 6
10 10 13 12 10 9 9 9 9 9 9 9 8 8 8 7 8 8 7 7 7 6 7 7 7 7 7 7 6 5 4 3 4 5 5 6 9 7 6 5 5 6 6
9 9 10 11 11 10 9 9 9 9 8 8 8 8 8 7 7 8 7 6 6 6 6 7 7 7 7 7 6 5 3 2 2 4 4 5 9 6 5 5 5 5 5
8 8 8 9 9 9 10 10 9 8 8 8 7 7 7 8 8 8 8 7 6 6 7 7 6 6 7 6 6 5 4 5 2 4 4 6 8 6 5 5 4 4 5
7 7 7 7 7 8 8 9 9 8 8 8 8 7 6 7 8 8 7 7 6 6 6 6 5 6 6 7 6 5 5 3 3 3 4 8 7 5 4 4 4 4 4
9 8 7 7 7 7 7 7 7 7 7 6 6 6 5 4 5 6 9 7 6 6 6 6 5 6 6 5 7 7 3 3 2 3 5 7 6 5 4 4 4 4 4
9 8 7 6 6 6 5 6 5 5 6 6 5 5 4 4 5 5 6 7 6 6 5 6 5 3 3 2 2 3 2 1 2 3 6 8 6 5 4 4 4 4 4
9 8 7 7 6 6 5 5 5 4 4 4 5 5 5 3 3 4 3 4 4 4 3 2 2 3 2 2 2 2 2 2 2 2 5 7 5 5 4 4 4 4 4
8 8 8 7 7 6 5 4 4 4 4 5 5 4 4 3 3 3 3 2 3 3 3 2 2 3 2 3 2 3 2 2 1 2 5 7 5 4 3 4 4 4 4
8 8 8 8 7 6 5 4 4 4 4 4 4 5 4 4 3 3 3 2 2 2 2 2 3 3 2 2 2 2 2 2 2 2 3 6 7 5 4 4 4 4 4
9 8 8 8 7 7 6 5 4 4 4 4 4 5 5 4 4 3 2 2 2 3 3 2 3 2 3 3 3 2 2 1 2 2 2 2 5 7 6 5 4 4 4
9 9 9 8 8 7 6 5 4 4 5 4 4 5 5 5 5 4 3 2 2 3 3 2 2 2 2 2 2 2 2 2 2 2 2 2 2 3 6 7 5 5 4
9 9 10 8 8 7 6 5 5 4 4 4 4 5 5 6 6 4 3 2 3 3 2 2 2 2 2 2 2 2 2 2 2 2 2 2 2 2 2 6 7 5 5
9 9 9 9 8 7 6 5 4 4 4 4 4 4 5 6 6 5 4 3 3 3 3 2 2 2 1 1 1 1 1 1 2 2 2 2 2 2 3 2 4 5 6
9 10 10 9 8 7 6 6 5 5 5 4 4 5 6 5 6 4 3 3 3 3 3 3 3 4 3 2 2 2 2 2 2 1 2 2 2 2 2 2 2 3 4
10 10 10 9 9 9 7 6 5 5 4 4 3 4 5 5 5 5 4 4 4 3 3 4 3 3 3 2 2 2 2 3 3 2 2 2 1 2 2 2 2 2 2
10 10 9 9 9 9 8 6 5 5 4 5 5 4 5 5 5 5 5 4 3 4 4 4 4 4 3 3 2 3 2 1 1 3 2 2 1 1 1 1 2 2 2
9 9 9 9 9 9 9 8 8 7 6 6 5 4 4 5 5 5 5 5 4 4 3 4 4 4 4 3 3 2 3 2 3 2 3 2 2 2 2 2 1 2 2
8 8 9 9 9 9 9 9 9 7 6 5 5 5 4 4 5 5 5 5 5 4 4 4 3 4 4 4 3 3 3 3 4 4 3 2 2 2 2 2 2 1 2
7 8 8 9 9 9 9 8 8 8 7 6 6 6 5 4 5 5 5 5 5 5 5 5 4 5 4 4 4 3 4 4 4 4 4 4 3 2 2 2 2 2 3
Wind_Direction
138 131 131 136 135 134 134 135 136 134 131 128 126 122 121 118 117 116 115 120 120 119 119 117 114 113 114 119 119 118 118 120 122 124 125 126 126 127 130 133 140 122 117
135 132 134 137 138 137 138 137 135 134 134 132 129 125 123 121 119 116 114 116 119 121 120 120 119 117 116 118 121 120 120 122 126 130 133 133 130 129 129 127 113 117 124
134 135 140 136 138 139 139 138 136 135 136 135 130 126 122 121 122 119 115 113 116 122 123 121 124 124 122 122 123 122 120 123 130 139 150 137 130 131 129 123 116 121 129
136 139 139 135 139 138 138 138 138 136 137 135 131 128 125 121 120 121 119 116 115 119 122 123 123 126 126 124 124 124 123 128 139 160 148 121 123 125 128 127 130 127 129
138 136 131 139 139 137 136 137 138 137 136 134 132 130 128 125 121 120 121 121 120 117 116 119 124 127 126 124 123 123 126 135 152 166 119 114 114 120 129 132 135 134 134
139 137 134 143 139 137 135 137 138 138 137 136 136 133 131 129 126 123 121 120 121 119 118 117 119 124 130 127 127 130 137 159 178 135 121 120 118 122 132 140 143 142 144
139 136 135 141 138 136 136 137 137 140 140 138 138 139 137 133 131 128 125 123 123 124 124 122 119 122 133 131 130 136 145 169 158 123 125 119 110 121 134 141 146 151 155
138 135 132 140 141 139 139 136 135 138 141 140 139 139 139 138 137 136 132 127 126 128 130 131 127 122 121 127 129 132 143 199 145 121 123 119 109 124 138 142 145 152 157
140 138 141 148 150 148 144 140 139 139 138 140 140 142 142 143 140 139 138 131 126 127 131 134 133 130 129 132 132 131 144 221 182 127 129 115 115 131 140 146 147 152 159
143 145 149 152 152 156 150 143 143 142 141 143 145 147 150 152 152 152 151 133 133 135 137 135 138 142 140 139 140 150 181 219 170 126 122 116 123 138 147 151 156 161 164
152 154 159 156 157 158 150 145 152 150 147 154 153 151 170 167 161 162 133 133 138 139 138 139 146 151 161 158 159 180 204 197 125 113 111 109 126 133 139 146 157 163 162
163 165 165 164 162 161 152 152 161 161 156 166 156 158 162 151 155 146 137 142 140 144 149 145 151 173 194 161 161 191 185 160 141 130 116 117 125 130 136 141 142 153 165
165 165 166 165 165 162 159 157 160 160 160 165 155 157 151 158 158 156 155 158 160 170 159 151 170 158 140 132 154 158 151 144 134 127 117 125 128 135 136 137 145 154 168
166 170 166 166 166 168 162 159 162 161 159 155 153 161 154 149 149 148 159 150 159 151 143 151 138 120 118 134 143 141 148 155 144 128 118 128 137 151 154 149 153 162 171
173 175 171 171 166 167 165 172 164 163 161 150 157 155 157 155 154 149 141 141 144 137 147 149 134 129 135 135 136 137 140 131 135 142 130 133 148 161 165 164 164 172 172
178 177 171 174 169 170 172 174 167 161 153 155 155 150 157 150 142 147 150 148 139 138 121 133 131 145 144 129 131 131 142 134 131 151 143 142 151 161 174 178 175 170 171
179 175 173 175 173 177 177 177 170 165 159 158 154 156 161 156 149 160 149 158 145 137 138 141 131 149 161 156 151 147 150 143 140 153 168 173 164 164 173 183 186 187 188
179 174 177 178 176 178 180 182 172 168 167 165 158 157 165 159 158 167 162 162 147 157 153 147 158 159 158 168 166 175 168 154 164 182 197 199 197 177 168 177 187 197 203
180 176 178 181 177 177 179 180 175 169 176 174 166 166 165 168 168 174 171 152 170 168 162 172 145 154 161 172 179 181 191 198 192 196 213 216 207 218 198 167 178 191 203
180 180 179 180 176 174 176 179 181 176 181 185 178 173 173 176 178 183 178 176 191 172 163 155 138 143 171 193 199 160 216 216 211 200 221 217 219 218 223 216 194 184 190
180 183 183 182 176 176 178 185 187 188 187 185 183 179 179 180 176 191 189 176 200 184 181 176 171 164 178 181 186 185 182 187 182 189 210 225 202 197 191 208 226 223 191
183 185 184 185 183 186 183 188 192 186 186 182 187 180 184 180 180 186 198 196 194 189 188 187 187 188 181 202 231 225 211 180 175 185 198 199 212 205 190 190 202 209 237
187 188 186 186 185 189 183 180 175 171 182 185 189 187 192 190 191 197 196 203 195 206 194 198 200 201 200 201 244 261 253 242 210 181 203 209 222 233 227 210 200 198 213
189 187 184 183 185 186 186 189 187 189 192 193 192 187 190 195 194 194 195 194 202 214 198 209 204 212 215 214 212 255 288 297 270 239 204 196 208 231 242 253 225 190 211
187 184 183 181 183 185 191 192 195 198 194 187 185 179 192 189 192 194 192 194 200 211 210 219 203 223 223 232 230 224 235 241 250 257 256 243 224 223 219 229 236 230 222
184 183 181 182 183 185 190 193 196 197 194 188 185 184 195 194 192 191 193 197 205 213 212 215 214 216 229 244 248 233 234 240 238 246 253 252 251 242 233 234 232 224 224
Height
1514 1513 1511 1513 1513 1514 1515 1515 1516 1517 1517 1518 1519 1519 1520 1520 1520 1521 1521 1521 1522 1523 1524 1524 1525 1526 1526 1528 1529 1530 1531 1533 1534 1535 1536 1536 1537 1539 1540 1540 1542 1543 1543
1514 1513 1512 1514 1514 1515 1516 1516 1517 1518 1519 1519 1520 1521 1521 1522 1522 1522 1523 1523 1523 1524 1525 1526 1526 1527 1528 1529 1530 1532 1533 1534 1535 1536 1537 1538 1539 1540 1541 1541 1543 1544 1544
1514 1514 1514 1514 1515 1516 1517 1517 1518 1519 1520 1521 1521 1522 1523 1523 1523 1524 1524 1524 1525 1525 1526 1527 1528 1528 1529 1530 1532 1533 1534 1535 1536 1537 1539 1540 1540 1541 1541 1542 1543 1544 1545
1515 1515 1515 1515 1516 1517 1517 1518 1519 1520 1521 1522 1523 1523 1524 1524 1525 1525 1525 1526 1526 1527 1528 1528 1529 1530 1531 1532 1533 1534 1535 1536 1538 1539 1541 1542 1542 1542 1542 1543 1544 1545 1546
1516 1517 1515 1516 1517 1518 1518 1519 1520 1521 1522 1523 1524 1525 1525 1526 1526 1526 1527 1527 1527 1528 1529 1530 1530 1531 1532 1533 1534 1535 1536 1537 1539 1540 1542 1543 1543 1542 1543 1544 1545 1546 1547
1517 1518 1517 1517 1518 1519 1519 1520 1522 1522 1523 1524 1525 1526 1526 1527 1527 1528 1528 1528 1529 1530 1530 1531 1531 1532 1533 1534 1535 1536 1537 1538 1540 1542 1543 1543 1544 1543 1544 1545 1545 1546 1547
1518 1519 1518 1518 1519 1520 1521 1522 1523 1524 1525 1525 1526 1527 1527 1528 1528 1529 1529 1530 1530 1531 1531 1532 1533 1533 1533 1535 1536 1537 1538 1539 1541 1543 1543 1544 1544 1544 1545 1545 1546 1547 1547
1519 1520 1519 1519 1520 1521 1522 1523 1524 1525 1526 1527 1527 1528 1528 1529 1529 1530 1530 1531 1531 1532 1532 1533 1534 1534 1534 1535 1537 1538 1538 1540 1542 1544 1544 1544 1544 1544 1545 1545 1546 1547 1548
1520 1521 1521 1521 1521 1522 1523 1524 1525 1526 1527 1527 1528 1528 1529 1529 1530 1530 1531 1532 1532 1533 1533 1534 1535 1536 1536 1537 1537 1538 1539 1540 1543 1544 1545 1545 1544 1545 1545 1546 1546 1547 1547
1520 1521 1522 1523 1523 1524 1524 1525 1525 1526 1527 1528 1529 1529 1530 1530 1531 1531 1532 1533 1533 1533 1534 1535 1536 1536 1537 1538 1538 1539 1540 1541 1544 1545 1545 1545 1545 1545 1545 1546 1546 1547 1547
1520 1521 1522 1523 1524 1525 1526 1525 1526 1527 1528 1528 1529 1530 1530 1531 1532 1533 1533 1533 1534 1534 1535 1535 1536 1537 1538 1538 1539 1540 1541 1543 1544 1544 1545 1544 1545 1545 1545 1545 1546 1547 1547
1519 1521 1522 1523 1524 1525 1526 1526 1527 1528 1528 1529 1530 1530 1531 1532 1532 1533 1532 1533 1534 1535 1536 1536 1537 1537 1538 1540 1540 1541 1542 1543 1544 1545 1545 1544 1544 1545 1545 1545 1545 1546 1546
1519 1520 1522 1523 1524 1525 1526 1527 1527 1528 1528 1529 1530 1530 1531 1531 1531 1533 1534 1534 1535 1536 1537 1537 1537 1538 1539 1540 1541 1542 1543 1544 1544 1545 1544 1544 1544 1544 1545 1545 1545 1546 1546
1518 1519 1521 1522 1523 1524 1525 1526 1527 1528 1528 1529 1529 1530 1531 1531 1532 1533 1534 1535 1536 1536 1537 1537 1538 1538 1539 1540 1541 1542 1543 1543 1544 1545 1544 1543 1544 1544 1544 1544 1545 1546 1546
1517 1518 1520 1521 1522 1523 1524 1525 1527 1527 1528 1529 1529 1529 1530 1532 1532 1533 1533 1534 1536 1536 1537 1537 1538 1538 1539 1540 1541 1542 1542 1543 1544 1544 1544 1543 1543 1544 1544 1544 1545 1545 1546
1516 1517 1519 1520 1521 1522 1523 1524 1526 1527 1528 1529 1529 1530 1530 1532 1532 1533 1534 1534 1535 1536 1536 1537 1537 1538 1539 1540 1541 1541 1542 1542 1543 1543 1544 1543 1543 1543 1543 1543 1544 1545 1546
1514 1516 1517 1518 1520 1521 1522 1524 1525 1526 1527 1528 1529 1529 1530 1531 1531 1533 1534 1534 1535 1536 1536 1536 1537 1538 1539 1539 1540 1541 1541 1542 1542 1542 1543 1543 1544 1543 1543 1543 1544 1545 1545
1513 1514 1515 1517 1518 1519 1521 1523 1524 1525 1527 1527 1528 1529 1529 1530 1531 1532 1534 1534 1535 1535 1536 1536 1537 1538 1539 1539 1540 1541 1541 1541 1541 1542 1542 1543 1543 1543 1543 1543 1543 1544 1545
1511 1512 1514 1516 1517 1518 1520 1521 1523 1524 1525 1526 1527 1528 1529 1530 1531 1531 1533 1533 1534 1535 1535 1536 1537 1537 1538 1538 1539 1540 1540 1541 1541 1541 1541 1542 1542 1542 1543 1542 1542 1543 1544
1508 1510 1512 1514 1515 1517 1518 1520 1521 1523 1524 1525 1526 1527 1528 1529 1530 1531 1532 1532 1534 1534 1535 1535 1536 1536 1537 1538 1539 1539 1539 1540 1540 1540 1540 1541 1540 1541 1541 1541 1542 1542 1542
1506 1508 1510 1512 1513 1515 1516 1518 1519 1521 1522 1524 1525 1525 1526 1528 1529 1530 1531 1531 1532 1533 1533 1534 1535 1536 1537 1537 1538 1538 1538 1538 1539 1539 1539 1539 1539 1539 1539 1539 1540 1541 1541
1503 1505 1507 1509 1511 1513 1515 1516 1518 1519 1521 1522 1523 1524 1525 1526 1527 1528 1529 1530 1531 1531 1532 1533 1534 1535 1536 1536 1537 1537 1538 1539 1537 1538 1538 1538 1538 1538 1538 1538 1538 1538 1539
1500 1502 1504 1506 1508 1511 1513 1515 1516 1518 1519 1521 1521 1522 1523 1524 1525 1526 1527 1528 1529 1530 1531 1531 1532 1533 1534 1535 1536 1537 1536 1535 1536 1537 1536 1536 1536 1536 1537 1537 1537 1536 1537
1498 1500 1501 1503 1506 1508 1510 1512 1514 1515 1517 1518 1519 1521 1522 1523 1523 1524 1525 1526 1526 1528 1528 1529 1530 1531 1532 1533 1534 1534 1534 1534 1535 1535 1536 1535 1534 1534 1535 1535 1535 1535 1535
1496 1498 1499 1501 1503 1505 1508 1510 1511 1513 1515 1516 1518 1519 1520 1521 1521 1522 1523 1524 1525 1526 1527 1527 1528 1529 1530 1531 1532 1532 1532 1533 1533 1534 1533 1534 1533 1533 1533 1533 1533 1533 1533
1494 1496 1497 1498 1500 1502 1505 1507 1508 1510 1512 1514 1515 1516 1518 1519 1519 1520 1521 1522 1523 1524 1524 1525 1526 1527 1527 1528 1530 1531 1531 1531 1531 1532 1531 1531 1531 1532 1531 1531 1531 1531 1531